QPF
0.04 0.04 0.04 0.05 0.07 0.08 0.08 0.11 0.12 0.12 0.07 0.05 0.03 0.02 0.04 0.06 0.07 0.08 0.09 0.07 0.03 0.02 0.02 0.03 0.03 0.03 0.04 0.04 0.04 0.04 0.04 0.03 0.02 0.02 0.02 0.02 0.01 0.01 0.02 0.03 0.01 0.01 0.01 0.02 0.02 0.02 0.02 0.02 0.02
0.03 0.05 0.07 0.06 0.05 0.05 0.08 0.11 0.11 0.09 0.05 0.03 0.02 0.02 0.01 0.02 0.04 0.05 0.08 0.06 0.03 0.02 0.02 0.02 0.02 0.03 0.06 0.05 0.03 0.03 0.03 0.02 0.02 0.02 0.02 0.02 0.02 0.02 0.04 0.03 0.02 0.02 0.01 0.02 0.02 0.01 0.02 0.03 0.04
0.04 0.05 0.05 0.06 0.05 0.04 0.07 0.09 0.08 0.05 0.03 0.02 0.01 0.01 0.01 0.02 0.03 0.04 0.06 0.03 0.03 0.02 0.02 0.02 0.03 0.03 0.07 0.05 0.02 0.02 0.03 0.01 0.01 0.01 0.01 0.02 0.03 0.03 0.02 0.02 0.02 0.02 0.01 0.03 0.03 0.02 0.03 0.05 0.04
0.05 0.05 0.05 0.04 0.04 0.05 0.06 0.06 0.05 0.03 0.02 0.01 0.01 0.03 0.02 0.03 0.03 0.05 0.06 0.03 0.02 0.02 0.03 0.04 0.04 0.04 0.07 0.04 0.03 0.02 0.02 0.01 0.01 0.01 0.01 0.02 0.03 0.04 0.03 0.02 0.02 0.02 0.02 0.03 0.04 0.03 0.04 0.05 0.03
0.07 0.05 0.04 0.03 0.05 0.07 0.07 0.04 0.04 0.03 0.03 0.03 0.02 0.02 0.03 0.04 0.04 0.04 0.06 0.04 0.01 0.01 0.01 0.04 0.05 0.05 0.05 0.03 0.03 0.02 0.01 0.01 0.01 0.02 0.02 0.02 0.03 0.04 0.05 0.04 0.04 0.04 0.03 0.02 0.03 0.02 0.03 0.03 0.03
0.09 0.06 0.05 0.03 0.05 0.07 0.06 0.04 0.03 0.03 0.02 0.03 0.03 0.02 0.03 0.04 0.05 0.04 0.03 0.01 0.01 0.00 0.00 0.02 0.03 0.04 0.05 0.02 0.03 0.03 0.02 0.02 0.02 0.02 0.02 0.02 0.03 0.04 0.04 0.04 0.04 0.04 0.03 0.03 0.03 0.02 0.02 0.02 0.03
0.06 0.06 0.06 0.04 0.04 0.05 0.06 0.05 0.04 0.03 0.03 0.04 0.02 0.02 0.02 0.03 0.04 0.04 0.03 0.01 0.01 0.00 0.00 0.01 0.03 0.03 0.03 0.03 0.04 0.03 0.02 0.02 0.02 0.02 0.02 0.03 0.03 0.03 0.03 0.02 0.02 0.02 0.02 0.02 0.05 0.03 0.03 0.03 0.03
0.05 0.07 0.07 0.04 0.03 0.07 0.08 0.06 0.03 0.04 0.04 0.03 0.03 0.03 0.03 0.02 0.03 0.03 0.02 0.01 0.01 0.01 0.01 0.01 0.02 0.02 0.02 0.02 0.03 0.03 0.03 0.02 0.02 0.04 0.05 0.04 0.03 0.02 0.02 0.02 0.02 0.01 0.01 0.02 0.03 0.03 0.02 0.02 0.02
0.05 0.06 0.07 0.04 0.04 0.08 0.07 0.05 0.04 0.03 0.03 0.04 0.04 0.04 0.03 0.02 0.02 0.02 0.01 0.01 0.01 0.01 0.01 0.01 0.01 0.02 0.01 0.01 0.02 0.02 0.04 0.03 0.03 0.03 0.05 0.04 0.02 0.01 0.01 0.02 0.03 0.01 0.01 0.02 0.03 0.02 0.01 0.01 0.02
0.04 0.03 0.04 0.03 0.04 0.07 0.07 0.04 0.02 0.03 0.04 0.05 0.06 0.06 0.02 0.01 0.02 0.03 0.02 0.01 0.00 0.00 0.00 0.01 0.00 0.00 0.00 0.00 0.01 0.01 0.02 0.03 0.02 0.02 0.03 0.02 0.01 0.01 0.00 0.02 0.04 0.03 0.02 0.02 0.03 0.02 0.01 0.01 0.01
0.05 0.03 0.03 0.05 0.05 0.05 0.04 0.03 0.01 0.02 0.03 0.03 0.04 0.06 0.03 0.02 0.03 0.04 0.04 0.02 0.01 0.01 0.01 0.00 0.00 0.00 0.00 0.00 0.00 0.00 0.00 0.01 0.01 0.00 0.01 0.01 0.00 0.00 0.01 0.00 0.02 0.02 0.01 0.01 0.01 0.01 0.01 0.01 0.02
0.03 0.04 0.04 0.05 0.04 0.03 0.02 0.01 0.01 0.01 0.01 0.01 0.02 0.02 0.02 0.01 0.02 0.03 0.04 0.04 0.02 0.01 0.01 0.00 0.00 0.00 0.01 0.00 0.00 0.00 0.00 0.00 0.00 0.00 0.00 0.00 0.00 0.00 0.01 0.01 0.00 0.00 0.00 0.00 0.01 0.02 0.02 0.01 0.02
0.03 0.03 0.03 0.04 0.03 0.03 0.02 0.01 0.01 0.01 0.01 0.01 0.02 0.02 0.01 0.01 0.02 0.04 0.05 0.04 0.02 0.02 0.01 0.01 0.01 0.01 0.01 0.01 0.00 0.00 0.00 0.00 0.00 0.00 0.00 0.00 0.00 0.00 0.00 0.01 0.01 0.01 0.00 0.00 0.01 0.02 0.01 0.01 0.01
0.02 0.02 0.03 0.03 0.03 0.03 0.03 0.02 0.01 0.02 0.01 0.01 0.01 0.01 0.01 0.02 0.02 0.03 0.04 0.03 0.02 0.02 0.01 0.01 0.01 0.01 0.00 0.00 0.00 0.00 0.00 0.00 0.00 0.00 0.00 0.00 0.00 0.00 0.00 0.01 0.01 0.01 0.00 0.01 0.01 0.01 0.01 0.01 0.01
0.02 0.02 0.03 0.03 0.03 0.02 0.02 0.02 0.02 0.02 0.01 0.01 0.01 0.01 0.01 0.02 0.03 0.03 0.02 0.02 0.01 0.01 0.01 0.01 0.01 0.01 0.00 0.00 0.00 0.00 0.00 0.00 0.00 0.00 0.00 0.00 0.00 0.00 0.01 0.01 0.01 0.01 0.01 0.01 0.02 0.01 0.01 0.01 0.02
0.02 0.02 0.03 0.02 0.02 0.02 0.02 0.02 0.02 0.02 0.02 0.02 0.02 0.01 0.02 0.03 0.03 0.03 0.03 0.01 0.01 0.01 0.01 0.01 0.01 0.01 0.01 0.00 0.00 0.00 0.00 0.00 0.00 0.00 0.00 0.00 0.00 0.01 0.01 0.01 0.00 0.01 0.01 0.02 0.02 0.01 0.00 0.01 0.02
0.02 0.02 0.02 0.01 0.01 0.02 0.02 0.02 0.02 0.03 0.03 0.02 0.02 0.02 0.03 0.03 0.04 0.04 0.06 0.04 0.01 0.01 0.01 0.01 0.01 0.01 0.01 0.01 0.00 0.00 0.00 0.00 0.00 0.00 0.00 0.00 0.00 0.01 0.01 0.00 0.00 0.00 0.01 0.01 0.01 0.01 0.01 0.00 0.02
0.02 0.01 0.01 0.01 0.01 0.01 0.01 0.01 0.01 0.02 0.02 0.02 0.02 0.02 0.02 0.03 0.03 0.03 0.04 0.05 0.04 0.02 0.02 0.01 0.02 0.01 0.01 0.01 0.00 0.00 0.00 0.00 0.00 0.00 0.00 0.00 0.01 0.01 0.00 0.00 0.00 0.00 0.00 0.01 0.01 0.01 0.01 0.01 0.02
0.01 0.01 0.01 0.01 0.01 0.01 0.01 0.01 0.01 0.01 0.02 0.02 0.03 0.03 0.02 0.02 0.04 0.04 0.03 0.04 0.04 0.03 0.02 0.02 0.02 0.02 0.01 0.01 0.00 0.00 0.00 0.00 0.00 0.00 0.00 0.00 0.00 0.00 0.00 0.00 0.00 0.00 0.01 0.02 0.02 0.01 0.00 0.01 0.01
0.02 0.02 0.01 0.01 0.01 0.01 0.01 0.01 0.01 0.01 0.03 0.04 0.03 0.02 0.02 0.02 0.03 0.04 0.03 0.03 0.03 0.02 0.02 0.02 0.01 0.02 0.02 0.01 0.00 0.00 0.00 0.00 0.00 0.00 0.00 0.00 0.00 0.00 0.00 0.00 0.00 0.00 0.01 0.03 0.02 0.02 0.01 0.01 0.01
0.04 0.02 0.01 0.01 0.01 0.01 0.01 0.02 0.02 0.02 0.03 0.04 0.03 0.02 0.02 0.03 0.04 0.05 0.04 0.03 0.03 0.03 0.03 0.02 0.01 0.01 0.02 0.01 0.00 0.00 0.00 0.00 0.00 0.00 0.00 0.00 0.00 0.00 0.01 0.01 0.00 0.00 0.01 0.01 0.01 0.01 0.01 0.01 0.01
0.04 0.02 0.01 0.01 0.01 0.01 0.02 0.04 0.04 0.04 0.02 0.01 0.01 0.01 0.02 0.03 0.05 0.06 0.05 0.06 0.06 0.04 0.02 0.01 0.01 0.00 0.01 0.01 0.00 0.00 0.00 0.00 0.00 0.00 0.00 0.00 0.00 0.00 0.01 0.00 0.00 0.01 0.00 0.00 0.00 0.00 0.00 0.01 0.01
0.02 0.02 0.01 0.01 0.01 0.02 0.01 0.02 0.04 0.02 0.01 0.01 0.01 0.01 0.02 0.03 0.04 0.04 0.03 0.03 0.03 0.02 0.01 0.01 0.01 0.01 0.01 0.01 0.00 0.00 0.00 0.00 0.00 0.00 0.00 0.00 0.00 0.01 0.01 0.01 0.00 0.00 0.00 0.00 0.00 0.00 0.00 0.01 0.01
0.01 0.01 0.02 0.03 0.04 0.03 0.01 0.01 0.02 0.02 0.01 0.02 0.02 0.02 0.02 0.02 0.02 0.03 0.02 0.01 0.01 0.01 0.01 0.00 0.01 0.01 0.01 0.01 0.01 0.00 0.01 0.00 0.01 0.00 0.00 0.00 0.01 0.01 0.01 0.00 0.00 0.00 0.00 0.00 0.00 0.00 0.00 0.00 0.01
0.01 0.03 0.04 0.05 0.04 0.03 0.01 0.01 0.01 0.01 0.00 0.01 0.02 0.01 0.02 0.02 0.02 0.02 0.01 0.01 0.01 0.01 0.01 0.00 0.00 0.00 0.01 0.01 0.01 0.01 0.01 0.01 0.01 0.01 0.01 0.01 0.01 0.01 0.01 0.01 0.00 0.00 0.00 0.00 0.00 0.01 0.01 0.00 0.00
0.02 0.02 0.03 0.03 0.03 0.03 0.02 0.02 0.02 0.01 0.01 0.00 0.00 0.00 0.01 0.02 0.02 0.02 0.01 0.01 0.00 0.01 0.01 0.00 0.00 0.00 0.00 0.00 0.01 0.01 0.01 0.01 0.01 0.01 0.01 0.01 0.01 0.01 0.01 0.01 0.00 0.00 0.00 0.00 0.00 0.01 0.00 0.00 0.01
0.01 0.01 0.01 0.02 0.02 0.02 0.03 0.03 0.04 0.01 0.00 0.00 0.00 0.00 0.01 0.01 0.02 0.02 0.02 0.01 0.00 0.00 0.01 0.00 0.00 0.00 0.00 0.00 0.01 0.01 0.01 0.01 0.01 0.01 0.01 0.01 0.01 0.01 0.01 0.00 0.01 0.01 0.00 0.00 0.00 0.00 0.00 0.01 0.01
0.01 0.01 0.01 0.02 0.02 0.02 0.03 0.04 0.06 0.02 0.01 0.00 0.00 0.01 0.01 0.01 0.02 0.01 0.01 0.01 0.00 0.00 0.01 0.01 0.01 0.01 0.00 0.01 0.01 0.01 0.01 0.01 0.00 0.01 0.01 0.01 0.02 0.01 0.00 0.00 0.01 0.01 0.00 0.00 0.00 0.00 0.00 0.01 0.01
0.01 0.01 0.01 0.01 0.01 0.02 0.03 0.02 0.02 0.02 0.02 0.02 0.01 0.00 0.00 0.01 0.01 0.02 0.01 0.01 0.01 0.01 0.01 0.01 0.01 0.01 0.01 0.01 0.01 0.01 0.01 0.01 0.00 0.01 0.02 0.02 0.01 0.00 0.00 0.01 0.00 0.00 0.01 0.00 0.00 0.00 0.00 0.00 0.00
0.01 0.01 0.01 0.01 0.01 0.02 0.02 0.01 0.01 0.01 0.01 0.02 0.01 0.00 0.00 0.01 0.01 0.02 0.02 0.01 0.01 0.01 0.01 0.01 0.01 0.01 0.01 0.01 0.01 0.01 0.01 0.01 0.01 0.01 0.01 0.01 0.01 0.00 0.00 0.00 0.00 0.00 0.01 0.00 0.00 0.00 0.00 0.00 0.00
MSLP
1011.31 1012.22 1013.24 1014.21 1015.01 1015.53 1015.74 1015.67 1015.40 1015.07 1014.78 1014.65 1014.70 1014.93 1015.27 1015.62 1015.88 1015.97 1015.86 1015.56 1015.13 1014.65 1014.22 1013.89 1013.72 1013.69 1013.75 1013.85 1013.94 1013.97 1013.93 1013.84 1013.73 1013.66 1013.66 1013.73 1013.88 1014.07 1014.27 1014.43 1014.53 1014.56 1014.53 1014.47 1014.39 1014.34 1014.30 1014.31 1014.33
1011.71 1012.77 1013.87 1014.86 1015.59 1015.98 1016.01 1015.76 1015.33 1014.86 1014.51 1014.34 1014.42 1014.70 1015.10 1015.51 1015.83 1015.96 1015.87 1015.59 1015.18 1014.72 1014.31 1014.02 1013.87 1013.84 1013.91 1014.00 1014.07 1014.07 1014.02 1013.92 1013.82 1013.75 1013.76 1013.84 1013.99 1014.17 1014.35 1014.49 1014.57 1014.58 1014.55 1014.50 1014.44 1014.41 1014.41 1014.44 1014.48
1012.22 1013.39 1014.53 1015.48 1016.11 1016.35 1016.22 1015.82 1015.26 1014.72 1014.33 1014.18 1014.30 1014.62 1015.08 1015.52 1015.85 1015.98 1015.89 1015.61 1015.20 1014.76 1014.38 1014.12 1014.00 1013.99 1014.06 1014.15 1014.20 1014.19 1014.11 1014.00 1013.90 1013.83 1013.84 1013.91 1014.05 1014.21 1014.36 1014.47 1014.53 1014.54 1014.52 1014.49 1014.47 1014.48 1014.51 1014.57 1014.64
1012.83 1014.06 1015.18 1016.05 1016.54 1016.64 1016.36 1015.84 1015.21 1014.65 1014.28 1014.18 1014.35 1014.73 1015.21 1015.66 1015.98 1016.07 1015.95 1015.64 1015.23 1014.80 1014.45 1014.22 1014.13 1014.15 1014.23 1014.31 1014.34 1014.31 1014.22 1014.09 1013.98 1013.91 1013.90 1013.97 1014.08 1014.22 1014.35 1014.44 1014.49 1014.51 1014.51 1014.51 1014.54 1014.59 1014.67 1014.76 1014.85
1013.48 1014.70 1015.75 1016.50 1016.85 1016.79 1016.41 1015.81 1015.17 1014.65 1014.35 1014.33 1014.57 1015.00 1015.49 1015.92 1016.18 1016.22 1016.05 1015.70 1015.27 1014.86 1014.53 1014.33 1014.27 1014.31 1014.39 1014.47 1014.49 1014.44 1014.33 1014.19 1014.07 1013.99 1013.98 1014.04 1014.14 1014.26 1014.37 1014.46 1014.51 1014.54 1014.57 1014.61 1014.68 1014.78 1014.90 1015.02 1015.13
1014.11 1015.26 1016.19 1016.78 1016.98 1016.80 1016.33 1015.72 1015.12 1014.69 1014.50 1014.58 1014.91 1015.38 1015.86 1016.26 1016.46 1016.42 1016.18 1015.79 1015.35 1014.94 1014.63 1014.46 1014.42 1014.47 1014.55 1014.62 1014.62 1014.56 1014.44 1014.30 1014.18 1014.11 1014.10 1014.15 1014.25 1014.37 1014.47 1014.56 1014.62 1014.68 1014.73 1014.81 1014.92 1015.06 1015.20 1015.33 1015.44
1014.65 1015.68 1016.46 1016.87 1016.92 1016.64 1016.14 1015.55 1015.04 1014.72 1014.67 1014.87 1015.28 1015.78 1016.26 1016.60 1016.73 1016.63 1016.33 1015.91 1015.45 1015.04 1014.75 1014.60 1014.57 1014.62 1014.69 1014.74 1014.73 1014.65 1014.53 1014.40 1014.30 1014.25 1014.26 1014.33 1014.44 1014.56 1014.67 1014.76 1014.83 1014.90 1014.98 1015.09 1015.22 1015.37 1015.53 1015.66 1015.77
1015.07 1015.96 1016.55 1016.80 1016.71 1016.35 1015.85 1015.32 1014.92 1014.74 1014.82 1015.13 1015.60 1016.13 1016.59 1016.88 1016.95 1016.79 1016.45 1016.01 1015.55 1015.16 1014.89 1014.75 1014.72 1014.76 1014.81 1014.83 1014.80 1014.72 1014.61 1014.50 1014.42 1014.41 1014.46 1014.56 1014.69 1014.82 1014.93 1015.03 1015.10 1015.17 1015.26 1015.38 1015.52 1015.68 1015.83 1015.96 1016.05
1015.38 1016.10 1016.52 1016.62 1016.42 1016.01 1015.53 1015.08 1014.79 1014.73 1014.92 1015.32 1015.83 1016.35 1016.78 1017.03 1017.05 1016.86 1016.51 1016.08 1015.65 1015.29 1015.04 1014.91 1014.87 1014.88 1014.91 1014.90 1014.84 1014.76 1014.66 1014.58 1014.55 1014.59 1014.68 1014.81 1014.96 1015.10 1015.22 1015.31 1015.38 1015.45 1015.53 1015.64 1015.78 1015.93 1016.08 1016.21 1016.29
1015.60 1016.18 1016.44 1016.41 1016.14 1015.72 1015.26 1014.89 1014.70 1014.73 1014.99 1015.42 1015.94 1016.43 1016.81 1017.02 1017.01 1016.82 1016.49 1016.10 1015.71 1015.40 1015.18 1015.07 1015.02 1015.01 1014.99 1014.95 1014.88 1014.79 1014.70 1014.66 1014.67 1014.76 1014.89 1015.06 1015.23 1015.38 1015.50 1015.57 1015.63 1015.68 1015.75 1015.84 1015.97 1016.12 1016.26 1016.38 1016.47
1015.79 1016.24 1016.40 1016.28 1015.97 1015.55 1015.14 1014.84 1014.71 1014.79 1015.06 1015.47 1015.94 1016.37 1016.68 1016.84 1016.82 1016.64 1016.36 1016.04 1015.73 1015.49 1015.32 1015.22 1015.17 1015.14 1015.09 1015.02 1014.93 1014.83 1014.77 1014.75 1014.80 1014.92 1015.10 1015.29 1015.47 1015.62 1015.73 1015.79 1015.82 1015.85 1015.90 1015.98 1016.10 1016.24 1016.39 1016.52 1016.62
1016.00 1016.37 1016.45 1016.30 1015.98 1015.60 1015.24 1014.98 1014.87 1014.95 1015.18 1015.52 1015.88 1016.21 1016.44 1016.54 1016.51 1016.36 1016.15 1015.91 1015.70 1015.54 1015.43 1015.37 1015.33 1015.29 1015.22 1015.13 1015.02 1014.93 1014.87 1014.88 1014.96 1015.10 1015.29 1015.49 1015.68 1015.82 1015.91 1015.95 1015.97 1015.98 1016.01 1016.08 1016.19 1016.33 1016.49 1016.65 1016.79
1016.26 1016.57 1016.63 1016.48 1016.20 1015.87 1015.56 1015.33 1015.23 1015.26 1015.40 1015.61 1015.84 1016.03 1016.15 1016.19 1016.14 1016.03 1015.88 1015.74 1015.63 1015.55 1015.52 1015.51 1015.49 1015.45 1015.39 1015.29 1015.19 1015.10 1015.05 1015.07 1015.15 1015.30 1015.48 1015.68 1015.85 1015.98 1016.06 1016.09 1016.09 1016.09 1016.11 1016.18 1016.29 1016.45 1016.63 1016.82 1017.00
1016.56 1016.85 1016.91 1016.80 1016.59 1016.33 1016.08 1015.89 1015.77 1015.72 1015.75 1015.80 1015.87 1015.91 1015.92 1015.88 1015.80 1015.71 1015.63 1015.56 1015.54 1015.55 1015.58 1015.62 1015.65 1015.64 1015.60 1015.53 1015.44 1015.37 1015.33 1015.34 1015.42 1015.54 1015.70 1015.87 1016.02 1016.13 1016.20 1016.22 1016.22 1016.23 1016.26 1016.33 1016.45 1016.62 1016.83 1017.05 1017.26
1016.86 1017.13 1017.22 1017.18 1017.06 1016.89 1016.72 1016.56 1016.42 1016.30 1016.20 1016.11 1016.02 1015.91 1015.80 1015.68 1015.57 1015.49 1015.44 1015.43 1015.47 1015.54 1015.63 1015.72 1015.79 1015.84 1015.84 1015.82 1015.77 1015.73 1015.70 1015.71 1015.76 1015.85 1015.97 1016.10 1016.21 1016.30 1016.36 1016.39 1016.41 1016.42 1016.47 1016.55 1016.68 1016.86 1017.09 1017.33 1017.58
1017.09 1017.34 1017.47 1017.51 1017.49 1017.44 1017.35 1017.24 1017.10 1016.93 1016.73 1016.51 1016.28 1016.05 1015.83 1015.64 1015.50 1015.40 1015.36 1015.37 1015.44 1015.54 1015.67 1015.80 1015.93 1016.03 1016.10 1016.15 1016.16 1016.16 1016.16 1016.17 1016.19 1016.24 1016.30 1016.38 1016.45 1016.52 1016.57 1016.61 1016.65 1016.69 1016.75 1016.85 1016.99 1017.17 1017.39 1017.64 1017.91
1017.18 1017.41 1017.58 1017.72 1017.82 1017.88 1017.90 1017.84 1017.72 1017.51 1017.25 1016.94 1016.61 1016.30 1016.01 1015.77 1015.59 1015.48 1015.42 1015.42 1015.48 1015.58 1015.71 1015.87 1016.04 1016.21 1016.37 1016.50 1016.59 1016.65 1016.68 1016.69 1016.69 1016.69 1016.70 1016.72 1016.75 1016.79 1016.84 1016.89 1016.95 1017.01 1017.09 1017.20 1017.33 1017.51 1017.72 1017.96 1018.23
1017.10 1017.32 1017.54 1017.77 1017.99 1018.17 1018.28 1018.29 1018.19 1017.98 1017.68 1017.32 1016.95 1016.59 1016.28 1016.02 1015.82 1015.69 1015.61 1015.58 1015.60 1015.66 1015.78 1015.94 1016.15 1016.38 1016.61 1016.83 1017.02 1017.16 1017.24 1017.26 1017.24 1017.20 1017.15 1017.11 1017.10 1017.11 1017.15 1017.21 1017.29 1017.37 1017.47 1017.57 1017.70 1017.85 1018.04 1018.26 1018.52
1016.86 1017.08 1017.36 1017.68 1018.01 1018.30 1018.50 1018.56 1018.48 1018.27 1017.95 1017.58 1017.19 1016.84 1016.54 1016.30 1016.11 1015.98 1015.88 1015.81 1015.78 1015.79 1015.87 1016.01 1016.23 1016.51 1016.83 1017.14 1017.43 1017.65 1017.79 1017.84 1017.81 1017.74 1017.64 1017.55 1017.49 1017.48 1017.51 1017.57 1017.66 1017.76 1017.86 1017.96 1018.06 1018.18 1018.33 1018.53 1018.76
1016.51 1016.76 1017.11 1017.53 1017.96 1018.33 1018.57 1018.66 1018.58 1018.34 1018.01 1017.63 1017.26 1016.94 1016.69 1016.50 1016.37 1016.26 1016.16 1016.07 1015.99 1015.95 1015.98 1016.09 1016.31 1016.62 1017.00 1017.40 1017.78 1018.08 1018.29 1018.38 1018.37 1018.27 1018.14 1018.01 1017.92 1017.88 1017.89 1017.96 1018.05 1018.15 1018.25 1018.34 1018.42 1018.50 1018.62 1018.78 1018.99
1016.14 1016.45 1016.90 1017.41 1017.92 1018.33 1018.58 1018.64 1018.51 1018.21 1017.83 1017.43 1017.07 1016.80 1016.63 1016.53 1016.48 1016.44 1016.39 1016.30 1016.20 1016.12 1016.10 1016.17 1016.38 1016.71 1017.13 1017.60 1018.06 1018.44 1018.72 1018.86 1018.87 1018.78 1018.63 1018.48 1018.36 1018.29 1018.30 1018.35 1018.45 1018.55 1018.65 1018.72 1018.78 1018.84 1018.92 1019.04 1019.23
1015.81 1016.25 1016.81 1017.42 1017.98 1018.39 1018.59 1018.56 1018.31 1017.90 1017.42 1016.97 1016.62 1016.39 1016.30 1016.32 1016.39 1016.46 1016.48 1016.44 1016.36 1016.26 1016.21 1016.26 1016.44 1016.77 1017.22 1017.73 1018.25 1018.71 1019.06 1019.25 1019.30 1019.23 1019.09 1018.93 1018.79 1018.72 1018.71 1018.77 1018.86 1018.97 1019.06 1019.13 1019.17 1019.21 1019.27 1019.37 1019.54
1015.61 1016.20 1016.89 1017.59 1018.18 1018.55 1018.65 1018.46 1018.04 1017.46 1016.84 1016.30 1015.92 1015.73 1015.72 1015.87 1016.08 1016.29 1016.43 1016.48 1016.44 1016.37 1016.31 1016.34 1016.51 1016.82 1017.27 1017.81 1018.37 1018.88 1019.29 1019.54 1019.64 1019.61 1019.49 1019.34 1019.21 1019.13 1019.13 1019.18 1019.28 1019.39 1019.50 1019.57 1019.62 1019.65 1019.70 1019.78 1019.93
1015.55 1016.30 1017.13 1017.90 1018.49 1018.78 1018.74 1018.37 1017.73 1016.95 1016.16 1015.50 1015.05 1014.88 1014.95 1015.21 1015.58 1015.94 1016.23 1016.40 1016.45 1016.43 1016.39 1016.42 1016.57 1016.86 1017.30 1017.84 1018.42 1018.97 1019.42 1019.73 1019.88 1019.90 1019.82 1019.71 1019.60 1019.53 1019.53 1019.60 1019.71 1019.84 1019.96 1020.06 1020.12 1020.17 1020.22 1020.30 1020.43
1015.60 1016.51 1017.44 1018.27 1018.83 1019.03 1018.83 1018.26 1017.40 1016.40 1015.43 1014.64 1014.13 1013.95 1014.08 1014.45 1014.96 1015.48 1015.93 1016.24 1016.40 1016.45 1016.46 1016.49 1016.63 1016.90 1017.31 1017.84 1018.42 1018.98 1019.47 1019.82 1020.03 1020.11 1020.09 1020.01 1019.94 1019.90 1019.92 1020.00 1020.13 1020.29 1020.44 1020.57 1020.68 1020.76 1020.83 1020.92 1021.04
1015.70 1016.72 1017.73 1018.56 1019.08 1019.18 1018.83 1018.08 1017.03 1015.85 1014.73 1013.83 1013.26 1013.07 1013.25 1013.71 1014.33 1015.00 1015.59 1016.03 1016.31 1016.45 1016.51 1016.57 1016.70 1016.95 1017.33 1017.82 1018.38 1018.94 1019.45 1019.84 1020.11 1020.25 1020.29 1020.27 1020.24 1020.24 1020.29 1020.39 1020.55 1020.73 1020.92 1021.10 1021.26 1021.39 1021.50 1021.61 1021.73
1015.77 1016.84 1017.86 1018.67 1019.12 1019.13 1018.66 1017.77 1016.60 1015.30 1014.09 1013.13 1012.53 1012.34 1012.55 1013.08 1013.79 1014.57 1015.27 1015.83 1016.22 1016.44 1016.56 1016.65 1016.77 1017.00 1017.35 1017.80 1018.34 1018.89 1019.40 1019.83 1020.14 1020.34 1020.44 1020.49 1020.51 1020.55 1020.63 1020.76 1020.94 1021.16 1021.39 1021.62 1021.83 1022.02 1022.19 1022.33 1022.46
1015.75 1016.77 1017.73 1018.47 1018.84 1018.77 1018.23 1017.28 1016.07 1014.76 1013.54 1012.58 1011.99 1011.83 1012.07 1012.64 1013.41 1014.25 1015.03 1015.67 1016.13 1016.43 1016.60 1016.72 1016.86 1017.07 1017.39 1017.81 1018.31 1018.84 1019.35 1019.80 1020.16 1020.41 1020.58 1020.69 1020.76 1020.84 1020.96 1021.11 1021.32 1021.56 1021.83 1022.11 1022.39 1022.64 1022.86 1023.04 1023.20
1015.59 1016.48 1017.30 1017.91 1018.19 1018.05 1017.49 1016.57 1015.41 1014.18 1013.05 1012.18 1011.66 1011.55 1011.82 1012.40 1013.19 1014.04 1014.85 1015.53 1016.05 1016.40 1016.62 1016.78 1016.94 1017.15 1017.45 1017.85 1018.32 1018.83 1019.34 1019.81 1020.20 1020.51 1020.74 1020.90 1021.03 1021.16 1021.30 1021.48 1021.70 1021.97 1022.26 1022.58 1022.90 1023.20 1023.48 1023.72 1023.91
1015.29 1015.96 1016.59 1017.03 1017.19 1017.00 1016.47 1015.63 1014.62 1013.55 1012.59 1011.86 1011.46 1011.42 1011.73 1012.31 1013.07 1013.90 1014.70 1015.39 1015.93 1016.32 1016.59 1016.80 1017.00 1017.23 1017.54 1017.93 1018.39 1018.89 1019.39 1019.88 1020.30 1020.66 1020.95 1021.17 1021.36 1021.52 1021.69 1021.89 1022.12 1022.39 1022.69 1023.03 1023.37 1023.72 1024.05 1024.33 1024.57
Thickness
5795 5795 5791 5779 5758 5741 5737 5747 5756 5758 5761 5767 5770 5765 5758 5751 5747 5741 5756 5764 5764 5763 5763 5763 5762 5762 5762 5761 5761 5761 5760 5759 5759 5759 5758 5758 5757 5756 5756 5755 5755 5755 5754 5754 5754 5754 5754 5754 5754
5794 5792 5782 5766 5743 5727 5733 5749 5751 5758 5766 5770 5768 5764 5757 5752 5756 5755 5758 5762 5763 5762 5761 5761 5761 5760 5760 5760 5759 5758 5758 5757 5757 5756 5756 5755 5754 5754 5753 5753 5753 5753 5752 5752 5752 5751 5751 5752 5752
5793 5789 5769 5752 5738 5730 5736 5749 5755 5764 5771 5769 5761 5760 5754 5750 5755 5756 5759 5761 5761 5760 5759 5759 5759 5758 5758 5757 5757 5756 5756 5755 5754 5754 5754 5753 5752 5752 5751 5751 5751 5750 5750 5750 5749 5749 5749 5749 5749
5786 5773 5761 5743 5735 5742 5748 5752 5759 5762 5765 5766 5759 5750 5751 5756 5757 5758 5760 5760 5759 5757 5757 5757 5757 5757 5756 5755 5755 5754 5753 5753 5752 5751 5751 5751 5750 5750 5749 5749 5748 5748 5747 5747 5747 5747 5747 5747 5747
5778 5760 5743 5732 5737 5747 5753 5759 5761 5756 5756 5756 5755 5744 5743 5753 5759 5759 5758 5757 5756 5755 5755 5755 5755 5755 5754 5753 5753 5752 5751 5750 5750 5749 5749 5748 5748 5747 5747 5746 5746 5745 5745 5744 5744 5744 5744 5744 5744
5761 5750 5730 5723 5734 5746 5752 5759 5759 5753 5752 5753 5749 5741 5740 5751 5754 5754 5755 5754 5754 5753 5753 5753 5753 5753 5752 5751 5750 5749 5749 5748 5747 5746 5746 5745 5745 5745 5744 5743 5743 5742 5742 5742 5742 5742 5742 5741 5741
5752 5739 5729 5728 5731 5739 5749 5758 5754 5750 5748 5750 5751 5739 5739 5746 5751 5753 5752 5751 5750 5750 5750 5750 5750 5750 5749 5748 5748 5747 5746 5745 5744 5743 5743 5742 5742 5741 5741 5740 5740 5739 5739 5739 5739 5739 5739 5738 5738
5758 5739 5728 5727 5729 5735 5749 5755 5755 5752 5749 5756 5753 5738 5735 5744 5750 5750 5748 5747 5746 5746 5746 5747 5747 5746 5746 5745 5745 5744 5744 5743 5742 5741 5740 5740 5739 5738 5738 5737 5737 5736 5736 5736 5736 5736 5736 5735 5734
5760 5731 5721 5728 5731 5736 5748 5749 5752 5756 5751 5749 5750 5747 5747 5748 5747 5744 5741 5740 5740 5742 5743 5744 5743 5742 5742 5742 5742 5741 5741 5740 5739 5738 5738 5737 5736 5735 5735 5734 5733 5733 5733 5733 5733 5733 5732 5732 5731
5747 5724 5730 5741 5743 5742 5746 5746 5747 5744 5739 5738 5740 5743 5746 5744 5741 5737 5735 5734 5735 5736 5739 5740 5739 5739 5739 5739 5738 5738 5738 5737 5737 5736 5735 5734 5733 5733 5732 5731 5730 5730 5730 5730 5729 5729 5729 5728 5727
5746 5733 5739 5745 5749 5748 5744 5743 5748 5738 5730 5733 5734 5736 5738 5738 5736 5734 5733 5733 5734 5735 5736 5737 5737 5736 5736 5736 5735 5735 5735 5734 5734 5734 5733 5732 5731 5730 5729 5729 5727 5727 5727 5726 5726 5725 5725 5725 5724
5744 5742 5745 5746 5751 5747 5742 5742 5739 5737 5735 5742 5742 5740 5737 5734 5732 5732 5731 5731 5733 5733 5734 5735 5735 5734 5733 5733 5733 5732 5732 5731 5732 5731 5731 5730 5729 5728 5727 5726 5725 5724 5724 5723 5723 5722 5722 5722 5721
5741 5740 5745 5747 5747 5745 5743 5738 5735 5733 5739 5741 5739 5736 5733 5732 5731 5731 5731 5730 5731 5731 5731 5732 5732 5731 5731 5730 5730 5729 5729 5729 5729 5729 5729 5728 5727 5725 5725 5724 5723 5722 5721 5720 5720 5719 5719 5719 5718
5743 5742 5741 5743 5742 5742 5735 5733 5732 5729 5735 5735 5732 5730 5730 5730 5730 5728 5728 5727 5727 5728 5728 5730 5730 5729 5728 5727 5726 5726 5726 5726 5726 5726 5726 5726 5725 5724 5723 5722 5721 5719 5719 5718 5717 5717 5716 5715 5714
5746 5735 5733 5735 5737 5736 5733 5720 5724 5731 5732 5728 5727 5727 5728 5729 5729 5727 5727 5726 5726 5726 5727 5727 5727 5726 5725 5724 5724 5723 5723 5723 5723 5723 5723 5723 5723 5722 5721 5719 5718 5717 5716 5715 5715 5714 5713 5712 5711
5737 5724 5714 5727 5733 5734 5724 5707 5723 5730 5727 5723 5723 5723 5724 5726 5727 5728 5727 5726 5726 5725 5724 5725 5725 5723 5722 5721 5721 5721 5720 5720 5720 5720 5721 5721 5720 5720 5718 5717 5716 5715 5714 5713 5712 5711 5709 5708 5707
5719 5709 5709 5719 5732 5731 5721 5710 5721 5728 5725 5720 5720 5720 5720 5721 5724 5726 5726 5726 5724 5724 5722 5721 5721 5720 5719 5719 5718 5718 5718 5717 5717 5717 5718 5718 5718 5717 5716 5714 5713 5713 5712 5710 5710 5707 5706 5704 5704
5708 5709 5711 5713 5726 5725 5716 5713 5720 5725 5724 5720 5718 5717 5717 5718 5722 5725 5725 5725 5723 5722 5721 5720 5718 5717 5716 5716 5715 5714 5714 5714 5714 5714 5715 5715 5715 5714 5714 5712 5711 5710 5709 5708 5707 5705 5704 5703 5702
5724 5716 5711 5717 5729 5722 5714 5713 5717 5721 5720 5716 5714 5715 5715 5718 5722 5724 5724 5723 5721 5720 5719 5717 5715 5715 5714 5712 5710 5709 5708 5709 5710 5711 5712 5712 5712 5712 5711 5710 5709 5708 5706 5705 5704 5702 5701 5699 5699
5724 5714 5712 5719 5729 5722 5713 5712 5718 5720 5719 5718 5716 5715 5716 5716 5717 5719 5720 5720 5718 5718 5716 5715 5714 5713 5712 5711 5710 5709 5707 5707 5707 5708 5709 5709 5710 5710 5709 5708 5706 5705 5704 5702 5701 5701 5698 5697 5697
5721 5715 5714 5714 5720 5721 5713 5704 5711 5717 5720 5721 5720 5719 5719 5718 5716 5716 5716 5716 5716 5715 5715 5715 5713 5712 5711 5711 5709 5707 5704 5704 5703 5704 5705 5706 5707 5707 5707 5706 5705 5704 5703 5700 5700 5699 5697 5694 5694
5713 5727 5725 5719 5706 5696 5705 5684 5703 5710 5712 5716 5718 5717 5718 5719 5718 5716 5715 5714 5714 5715 5715 5714 5712 5711 5710 5709 5707 5704 5700 5698 5699 5700 5702 5703 5704 5704 5704 5704 5703 5702 5701 5699 5699 5698 5697 5694 5691
5722 5731 5726 5719 5707 5696 5699 5687 5694 5708 5706 5713 5719 5720 5720 5720 5719 5717 5717 5717 5716 5716 5714 5713 5711 5710 5709 5708 5706 5703 5700 5699 5699 5699 5699 5700 5701 5701 5701 5701 5701 5700 5699 5698 5697 5696 5696 5694 5691
5733 5723 5715 5705 5695 5682 5695 5686 5689 5701 5712 5718 5722 5723 5723 5722 5721 5719 5718 5717 5716 5715 5713 5712 5709 5708 5707 5706 5704 5702 5700 5698 5697 5696 5696 5696 5697 5698 5699 5699 5698 5697 5697 5696 5695 5694 5693 5692 5690
5723 5698 5680 5676 5671 5676 5698 5691 5697 5719 5726 5727 5726 5726 5725 5724 5721 5718 5716 5715 5714 5713 5712 5710 5708 5706 5705 5704 5703 5701 5699 5698 5696 5695 5695 5694 5694 5694 5696 5696 5696 5695 5694 5694 5693 5692 5691 5690 5688
5715 5702 5678 5668 5667 5676 5694 5690 5708 5730 5734 5735 5733 5730 5726 5723 5722 5720 5718 5716 5715 5713 5712 5710 5707 5705 5704 5702 5701 5700 5699 5698 5696 5696 5695 5694 5693 5693 5694 5694 5694 5693 5692 5692 5691 5689 5688 5687 5686
5712 5703 5703 5685 5682 5674 5682 5697 5714 5729 5730 5731 5730 5727 5724 5724 5722 5720 5719 5717 5715 5713 5712 5711 5708 5705 5703 5702 5700 5699 5698 5697 5696 5695 5695 5694 5693 5693 5693 5692 5691 5690 5690 5689 5688 5686 5685 5684 5682
5726 5714 5694 5683 5671 5664 5677 5685 5692 5712 5720 5725 5726 5725 5726 5725 5723 5721 5719 5717 5716 5714 5713 5712 5709 5705 5703 5702 5700 5699 5698 5697 5696 5694 5693 5692 5692 5692 5691 5690 5689 5688 5687 5686 5684 5683 5682 5681 5679
5715 5710 5699 5685 5681 5667 5664 5679 5715 5718 5723 5724 5726 5728 5727 5725 5724 5722 5719 5718 5716 5713 5711 5709 5707 5704 5702 5701 5699 5698 5697 5696 5695 5693 5692 5691 5690 5690 5688 5687 5686 5685 5684 5683 5681 5679 5678 5677 5675
5722 5714 5700 5683 5679 5677 5669 5682 5728 5726 5728 5728 5727 5729 5728 5727 5725 5722 5719 5716 5713 5711 5710 5708 5706 5704 5702 5701 5699 5697 5696 5694 5693 5692 5691 5690 5689 5688 5687 5685 5684 5682 5681 5679 5678 5676 5675 5673 5671